Regional Weather Roundup
Issued by NWS

Home | Current Version | Previous Version | Graphics & Text | Print | Product List | Glossary On
Versions: 1 2 3 4 5 6 7 8 9 10 11 12 13 14 15 16 17 18 19 20 21 22 23 24 25 26 27 28 29 30 31 32 33 34 35 36 37 38 39 40 41 42 43 44 45 46 47 48 49 50
000
ASUS43 KMKX 300400
RWRWI

WISCONSIN REGIONAL WEATHER ROUNDUP
NATIONAL WEATHER SERVICE MILWAUKEE/SULLIVAN WI
1100 PM CDT WED JUL 29 2015

NOTE: "FAIR" INDICATES FEW OR NO CLOUDS BELOW 12,000 FEET WITH NO
SIGNIFICANT WEATHER AND/OR OBSTRUCTIONS TO VISIBILITY.

WIZ001-002-006>008-014>016-023>028-300500-
NORTHWEST WISCONSIN

CITY           SKY/WX    TMP DP  RH WIND       PRES   REMARKS
SUPERIOR ARPT  CLEAR     67  55  64 SW7       29.84S
ASHLAND        CLEAR     68  54  60 SW7       29.84S
HAYWARD        CLEAR     70  50  49 SW6       29.91R
SIREN          CLEAR     68  52  56 W8        29.93R
CUMBERLAND     CLEAR     63  54  72 SW7       29.95R
RICE LAKE      CLEAR     66  55  66 SW7       29.95R
CHETEK         CLEAR     70  56  60 SW5       29.94R
LADYSMITH      CLEAR     68  55  62 SW8       29.94S
EAU CLAIRE     NOT AVBL
MENOMONIE      CLEAR     70  55  57 SW6       29.96R
NEW RICHMOND   CLEAR     66  54  63 W7        29.97R
OSCEOLA        CLEAR     68  55  61 W6        29.98R
$$

WIZ003>005-009-010-017-018-300500-
NORTH CENTRAL WISCONSIN

CITY           SKY/WX    TMP DP  RH WIND       PRES   REMARKS
MANITOWISH WTR CLEAR     66  55  69 W7        29.88S
ARBOR VITAE    PTCLDY    69  56  63 W9G17     29.89R
WOODRUFF       PTCLDY    69  56  63 W9G17     29.89R
RHINELANDER    CLEAR     68  54  60 W10       29.91R
EAGLE RIVER    CLOUDY    69  52  54 W12G20    29.88R
LAND O LAKES   PTCLDY    70  53  54 W7        29.87S
PHILLIPS       PTCLDY    66  55  67 W6        29.91R
TOMAHAWK       CLEAR     66  53  61 CALM      29.92S
MEDFORD        CLEAR     66  56  70 SW8       29.94S
MERRILL        NOT AVBL
$$

WIZ029-030-035-036-043>047-300500-
CENTRAL WISCONSIN

CITY           SKY/WX    TMP DP  RH WIND       PRES   REMARKS
WAUSAU         CLEAR     71  55  56 W12       29.92S
MOSINEE        CLEAR     64  55  72 SW8       29.95S
MARSHFIELD     CLEAR     66  54  65 SW9       29.96S
STEVENS POINT  CLEAR     70  53  56 SW8       29.96R
WAUPACA        CLEAR     70  55  58 SW7       29.94S
WAUTOMA        NOT AVBL
WISC RAPIDS    CLEAR     69  53  56 W7        29.97S
CAMP DOUGLAS   NOT AVBL
$$

WIZ011>013-019>022-031-037>040-048>050-300500-
NORTHEAST WISCONSIN

CITY           SKY/WX    TMP DP  RH WIND       PRES   REMARKS
ANTIGO         CLEAR     65  55  69 W10       29.92S
SHAWANO        CLEAR     73  55  53 SW5       29.91S
OCONTO         CLEAR     69  55  61 W6        29.88S
STURGEON BAY   CLEAR     72  54  53 SW9       29.91S
GREEN BAY      CLEAR     70  55  59 SW7       29.91S
MANITOWOC      NOT AVBL
APPLETON       CLEAR     70  52  52 SW8       29.94S
CLINTONVILLE   CLEAR     70  54  56 SW5       29.92R
OSHKOSH        CLEAR     70  53  54 VRB6      29.95R
$$

WIZ032>034-041-042-053>061-300500-
SOUTHWEST WISCONSIN

CITY           SKY/WX    TMP DP  RH WIND       PRES   REMARKS
LA CROSSE      CLEAR     74  55  51 W10       29.98S
SPARTA         CLEAR     68  53  58 W5        30.00R
VIROQUA        CLEAR     65  56  71 SW6       30.03R
BOSCOBEL       CLEAR     64  59  83 CALM      30.03R
PRAIRIE DU CHI CLEAR     67  57  69 CALM      30.03S
PLATTEVILLE    CLEAR     64  59  81 SW7       30.05S
$$

WIZ056-057-062-063-064-067-068-300500-
SOUTH CENTRAL WISCONSIN

CITY           SKY/WX    TMP DP  RH WIND       PRES   REMARKS
REEDSBURG      CLEAR     70  55  59 W7        30.00R
BARABOO/DELLS  CLEAR     68  52  56 SW6       30.00S
LONE ROCK      NOT AVBL
MINERAL POINT  CLEAR     66  54  63 SW3       30.05R
MADISON        CLEAR     73  55  53 VRB3      30.00S
MIDDLETON      CLEAR     66  53  62 W6        30.02R
WATERTOWN      CLEAR     68  55  62 SW3       30.00R
MONROE         CLEAR     70  54  56 W12       30.04S
JANESVILLE     CLEAR     68  54  60 W7        30.02R
$$

WIZ051-052-058>065-066-070>072-300500-
SOUTHEAST WISCONSIN

CITY           SKY/WX    TMP DP  RH WIND       PRES   REMARKS
MILWAUKEE      CLEAR     74  53  48 W9        29.98S
WAUKESHA       CLEAR     70  52  52 W9        30.01R
MILWAUKEE/TIMM CLEAR     72  50  46 W6        29.99S
RACINE         CLEAR     72  53  51 W8        30.00S
BURLINGTON     CLEAR     67  53  61 W5        30.01R
KENOSHA        CLEAR     66  55  67 W7        30.00S
FOND DU LAC    CLEAR     69  54  58 SW7       29.96S
SHEBOYGAN      CLEAR     66  55  67 SW7       29.95R
WEST BEND      CLEAR     70  52  52 W7        29.98R
JUNEAU         CLEAR     65  55  70 SW7       30.00R
$$

LSZ147-162-300500-
LAKE SUPERIOR

STATION/POSITION TIME  TEMP    WIND        PRES    WAVE
                       AIR SEA DIR/SP/G            HT/PER
                 (UTC) (F)     (DEG/KT/KT) (MB)    (FT/S)
W MID LAKE BUOY  0250   62 55  240/ 16/ 17 1006.6R   3/ 5
DEVILS ISLAND    0300   68     250/ 23/ 28 1008.1R
PORT WING        0300   72     220/ 11/ 14 1010.2R
SAXON HARBOR     0340   72                 1009.8R
$$

LMZ867-665-643>646-300500-
LAKE MICHIGAN

STATION/POSITION TIME  TEMP    WIND        PRES    WAVE
                       AIR SEA DIR/SP/G            HT/PER
                 (UTC) (F)     (DEG/KT/KT) (MB)    (FT/S)
CHAMBERS ISLAND  0300   74     200/  5/ 10 1010.8R
S GREEN BAY BUOY 0300   71 68  230/ 10/ 12 1013.3R
N MID LAKE BUOY  0250   73 70  240/  8/ 10 1010.2R   2/ 4
NORTHPORT PIER   0300   75     200/  2/  5 1010.8R
SISTER BAY       0314   76     260/ 11/ 13   N/A
ALGOMA LAKESHORE 0327          260/  4/  6   N/A
KEWAUNEE LAKESHO 0300   74                   N/A
SHEBOYGAN LAKESH 0300   75     240/  5/  6 1013.8R
PORT WASHINGTON  0300   74     250/  5/  7 1014.9R
ATWATER BUOY     0300   73     260/  8/ 10 1016.4R
MILWAUKEE LAKESH 0300   78     260/  8/ 11   N/A
KENOSHA   LAKESH 0300   77     260/ 10/ 14 1014.9R
$$

TC  - TEMPERATURE IN CELSIUS
VSB - VISIBILITY IN STATUTE MILES
WCI - WIND CHILL INDEX
HX  - HEAT INDEX




USA.gov is the U.S. government's official web portal to all federal, state and local government web resources and services.